[Date Prev][Date Next][Thread Prev][Thread Next] - [Date Index][Thread Index][Author Index]
2 Line ISS Keps 10-3
- Subject: [sarex] 2 Line ISS Keps 10-3
- From: "Dave Larsen PhD" <doc@xxxxxxxxxxx>
- Date: Wed, 3 Oct 2001 05:18:38 -0700
ISS
1 25544U 98067A 01276.45015256 .00066016 00000-0 77034-3 0 5476
2 25544 51.6395 263.9871 0007697 159.3429 344.0456 15.60975453163976
----
Via the sarex mailing list at AMSAT.ORG courtesy of AMSAT-NA.
To unsubscribe, send "unsubscribe sarex" to Majordomo@amsat.org
AMSAT Home